Theta_e
329 331 337 341 341 342 346 348 349 348 347 345 345 344 344 341 340 339 337 335 335 333 333 333 333 331 330 330 327 327 328 328 325 329 329 329 330 329 330 329 327 326 327
336 340 343 344 345 349 349 348 348 348 345 344 344 344 342 341 339 337 334 334 333 332 333 334 331 331 331 327 327 327 326 327 327 326 329 330 329 329 329 329 328 327 327
344 345 347 346 347 351 350 348 348 347 345 344 344 342 340 339 339 335 333 333 333 333 333 332 331 332 330 329 329 325 327 327 327 328 328 329 329 328 329 327 329 328 328
346 348 348 349 350 349 349 348 347 346 345 344 342 340 338 336 335 334 332 333 334 334 333 332 333 331 331 330 329 328 328 327 328 328 327 328 329 329 328 327 325 327 329
347 348 346 346 345 346 346 346 345 345 343 341 339 339 336 334 332 332 332 333 332 333 333 333 333 332 331 330 328 329 328 328 328 327 326 327 328 327 326 326 324 325 326
345 344 343 341 340 341 341 340 338 338 338 337 336 335 335 334 332 333 333 332 332 332 333 332 330 331 331 330 330 328 329 329 327 326 326 326 327 327 327 325 323 323 322
343 342 341 340 338 338 338 337 336 335 335 335 335 334 334 333 332 331 330 332 332 332 332 329 328 328 329 329 329 329 329 329 327 327 327 327 325 326 326 324 324 324 322
342 340 340 338 337 337 337 335 334 334 333 333 333 333 332 331 331 330 331 331 332 332 330 327 329 329 327 328 328 329 329 328 328 327 327 326 327 327 327 325 324 323 323
340 339 338 337 336 336 335 333 333 332 332 333 332 330 329 329 328 329 330 332 332 332 330 326 330 330 328 328 328 327 327 328 328 327 326 326 326 327 327 325 322 321 321
338 337 337 336 336 334 333 332 333 332 332 333 330 330 329 328 330 332 332 332 332 330 329 329 330 328 330 328 327 325 325 326 327 326 325 325 325 326 326 326 324 321 320
336 336 337 336 336 333 333 333 333 332 332 331 330 329 328 327 329 332 331 331 331 331 330 329 329 328 329 328 327 326 327 328 326 324 323 324 324 324 324 324 323 323 321
334 335 336 336 335 333 333 333 333 332 332 331 331 327 326 326 326 330 332 331 331 330 328 329 330 327 327 329 327 326 326 326 324 323 322 322 323 323 323 323 322 321 321
334 335 335 336 335 333 333 334 333 333 331 330 329 326 324 324 325 329 330 331 330 329 326 326 327 328 326 327 328 325 325 323 322 320 319 320 321 322 323 322 321 321 321
334 335 334 334 334 334 334 334 333 331 330 330 328 326 324 324 325 326 328 329 330 329 326 325 325 324 324 327 324 323 323 322 321 319 320 320 321 321 322 321 320 320 322
333 334 333 334 334 334 333 333 333 332 332 330 329 329 326 324 324 324 325 328 327 326 324 322 322 322 323 323 322 323 322 321 320 319 320 320 321 321 322 322 321 321 322
332 332 330 330 331 331 329 328 333 332 332 332 331 330 328 326 324 323 323 323 323 323 321 320 320 320 320 321 321 322 321 320 320 319 319 320 320 321 321 321 321 321 321
331 329 329 329 328 328 328 327 319 325 332 331 331 330 328 326 324 324 325 324 323 322 321 320 320 320 320 321 322 322 321 320 320 320 319 319 319 320 320 320 321 322 323
331 330 330 329 328 326 325 325 324 325 324 325 329 329 328 326 326 325 325 324 321 322 321 320 320 319 320 321 322 322 322 321 320 320 320 319 319 319 320 320 321 321 322
330 330 330 330 328 326 325 325 325 323 321 320 323 325 325 325 324 323 323 322 322 323 322 320 321 320 321 321 323 323 322 321 321 321 321 320 320 320 320 321 321 321 321
331 332 331 331 329 327 325 325 323 321 319 319 319 320 321 321 320 320 322 322 323 323 323 321 321 321 321 321 323 323 323 322 321 321 321 321 321 321 321 321 321 321 321
331 333 333 332 331 329 327 325 324 321 320 320 319 321 322 320 320 320 322 322 323 323 323 324 321 321 321 321 321 322 322 322 322 322 321 321 322 322 323 323 323 323 321
330 332 333 333 332 331 329 327 325 323 322 321 320 321 321 320 321 322 323 324 325 325 324 325 323 322 322 322 322 322 322 322 322 323 322 322 322 322 323 325 325 324 324
330 330 329 332 332 331 329 328 327 325 323 322 320 319 320 322 322 323 323 324 325 326 325 325 325 325 325 324 324 322 322 323 323 322 323 324 323 322 322 325 326 325 325
327 326 325 325 327 329 330 329 328 327 323 321 320 321 321 322 321 317 317 317 319 320 320 319 320 321 321 322 324 324 325 326 325 324 324 325 325 325 324 325 326 327 327
316 315 315 315 317 322 327 327 324 323 322 319 317 315 312 310 309 308 307 308 309 311 311 312 313 313 314 315 317 319 322 327 325 324 325 326 326 327 327 327 326 327 326
306 306 307 308 308 310 311 313 314 312 309 307 307 306 305 303 301 300 301 301 301 301 300 301 302 305 309 311 311 313 316 320 322 324 325 326 325 323 323 321 321 321 320
Wind_Speed
41 40 33 31 28 32 29 30 31 34 30 29 28 23 23 24 21 18 15 15 14 14 12 13 12 11 10 10 10 8 5 8 3 2 3 11 17 18 17 13 11 12 13
27 28 26 25 30 27 29 31 34 33 31 31 27 26 24 23 20 17 16 15 15 14 14 13 13 11 11 10 9 11 8 5 5 3 6 10 14 15 17 14 12 12 13
25 26 28 28 27 28 31 34 34 34 32 31 29 28 25 22 19 17 14 16 16 16 16 14 13 14 13 11 10 10 9 8 5 7 5 7 12 19 17 15 13 13 12
30 29 26 26 28 31 33 32 33 34 32 31 29 27 26 22 19 18 15 15 18 18 16 12 12 14 14 13 13 11 10 8 9 14 10 9 14 16 20 19 14 15 15
26 26 26 28 31 33 32 30 32 32 31 30 28 25 24 19 17 16 17 14 14 16 13 10 11 10 12 12 14 14 12 11 13 18 11 12 12 16 16 15 18 18 15
24 24 30 32 34 36 33 32 30 29 28 27 25 25 22 19 17 15 12 15 15 15 14 10 7 8 11 12 11 13 14 18 19 14 9 14 12 15 17 23 24 15 5
26 27 30 31 32 34 34 32 28 25 24 24 25 23 20 17 15 14 15 16 15 16 12 8 6 6 8 11 11 9 13 16 20 25 24 21 19 24 25 24 20 17 9
27 27 30 30 30 34 33 30 26 28 29 27 24 23 22 19 16 15 14 14 16 14 11 8 8 7 8 11 11 11 11 14 19 18 19 26 24 26 29 25 28 20 19
27 28 28 30 30 31 28 29 27 25 23 24 26 24 20 18 15 14 14 16 16 15 13 9 7 8 8 11 16 16 14 14 13 14 13 21 22 25 26 27 27 24 9
28 30 29 32 31 29 29 26 23 24 26 25 24 21 19 18 16 14 14 17 18 16 12 10 8 7 10 14 17 18 17 13 14 16 14 17 18 21 23 25 30 22 14
29 29 31 34 32 30 29 26 24 25 27 26 23 18 17 17 16 13 14 17 19 19 15 12 10 8 9 17 16 18 18 17 17 17 17 19 19 21 22 22 27 31 25
27 29 29 32 26 30 30 28 28 27 26 24 21 17 15 14 13 11 14 14 17 18 14 12 13 12 8 11 17 16 18 19 17 17 18 19 22 22 22 20 24 25 24
28 27 28 31 30 27 30 27 25 26 25 20 18 19 16 14 13 11 13 14 16 14 13 10 11 13 10 10 16 18 18 16 16 17 15 16 19 21 20 18 19 18 17
27 26 27 29 27 28 27 27 27 24 21 19 17 18 19 15 14 13 13 13 14 17 14 11 11 11 10 13 22 20 18 15 16 18 16 18 18 18 19 20 19 19 15
27 25 25 31 28 24 22 20 25 25 28 25 22 25 22 18 17 16 16 16 17 16 16 15 13 13 13 19 23 19 17 16 16 19 18 18 21 18 19 19 22 23 14
25 23 24 27 28 27 23 17 18 19 20 22 21 23 20 15 16 16 13 12 11 13 15 15 14 14 15 17 17 20 19 18 18 19 18 18 19 19 19 20 20 21 17
28 24 24 25 26 26 24 24 16 12 18 17 18 18 15 16 17 16 13 12 11 14 12 13 12 12 14 17 17 20 20 20 20 20 18 20 20 19 19 19 15 17 10
32 35 28 25 25 21 23 22 23 21 18 17 19 18 16 19 16 15 16 16 15 9 12 13 13 12 13 16 19 20 20 19 19 19 19 19 21 18 19 17 17 15 11
32 26 25 23 23 25 24 24 23 23 21 21 20 20 20 17 15 14 16 17 16 14 12 13 12 11 11 14 20 20 20 20 19 19 18 19 20 19 18 19 19 17 16
27 29 28 23 24 22 23 22 20 21 18 16 15 21 21 21 19 18 15 15 15 12 10 11 12 10 11 13 15 16 18 15 16 16 18 18 18 20 19 20 18 19 21
29 32 27 23 23 23 21 20 19 21 18 17 18 24 25 22 17 17 16 13 11 8 8 6 10 11 10 12 14 16 15 14 12 13 15 18 17 18 17 18 18 18 22
29 27 25 24 23 22 21 22 21 21 20 18 19 22 21 13 15 15 12 8 5 5 7 6 6 7 9 9 10 13 16 17 18 16 15 16 18 21 19 17 19 21 21
30 23 19 22 24 24 25 23 22 20 19 17 18 20 15 8 9 6 4 4 5 9 10 10 11 9 10 12 11 11 13 13 14 17 17 15 18 22 24 21 20 22 23
24 20 19 18 22 25 24 22 19 23 24 25 23 18 14 16 14 14 13 14 17 17 14 15 13 8 9 10 10 11 11 13 12 13 15 17 19 19 21 22 22 21 22
26 26 24 23 22 23 26 25 26 24 26 25 26 24 22 21 21 21 21 22 22 23 21 19 17 16 15 13 10 5 6 11 9 6 5 5 14 15 10 6 2 5 4
30 29 28 24 28 26 27 25 26 29 25 27 28 26 25 26 26 26 27 27 29 30 28 28 26 23 21 19 17 15 13 9 8 7 8 8 8 8 6 2 2 0 3
Wind_Direction
219 220 216 210 209 200 198 198 199 194 185 188 190 182 177 177 181 184 192 192 196 197 200 203 212 214 216 219 214 205 212 191 155 138 193 184 183 190 175 184 184 189 188
199 199 199 190 191 186 193 196 195 184 183 185 181 178 177 179 182 188 189 194 192 196 201 208 216 210 218 220 213 216 211 190 162 156 146 159 183 188 181 168 180 190 185
183 179 176 182 185 187 190 189 183 182 181 181 176 175 178 182 188 193 198 194 200 208 206 212 211 211 218 213 211 210 204 200 198 170 139 147 151 167 164 162 179 177 172
171 169 167 175 181 182 181 177 179 176 172 169 173 178 185 182 189 192 197 199 215 213 215 214 210 219 220 220 210 206 203 202 195 171 145 145 144 148 159 145 133 142 137
155 151 147 161 164 164 160 158 156 159 163 169 177 182 183 174 186 194 192 199 188 192 197 200 211 221 220 217 210 204 202 195 179 166 137 147 141 150 147 155 129 148 145
141 139 140 139 135 140 148 149 150 156 164 170 177 178 172 180 187 186 190 175 177 181 174 182 204 214 220 211 210 206 207 189 178 161 150 152 160 149 161 152 144 142 113
138 139 137 138 140 149 150 154 157 154 156 161 161 162 170 175 179 177 182 177 181 177 175 182 172 192 184 177 190 205 213 218 213 185 170 165 164 174 169 161 157 149 133
140 142 140 139 144 149 155 157 153 155 155 155 159 167 167 163 166 171 178 179 176 177 176 174 166 170 166 171 171 171 168 186 190 193 198 188 188 181 183 166 163 155 153
146 144 139 145 150 153 156 158 157 160 158 159 165 164 165 159 167 172 175 173 170 173 170 168 175 168 166 171 165 154 154 160 183 199 199 189 188 186 181 169 159 145 147
150 144 146 151 154 156 154 156 160 163 164 166 163 169 170 164 164 168 173 170 163 168 172 169 171 180 174 175 169 160 153 155 157 160 171 180 184 187 189 193 180 160 152
141 144 151 158 162 160 158 160 160 158 160 162 162 167 168 168 163 166 173 176 174 171 172 180 187 190 188 188 183 172 162 153 154 151 159 163 171 179 187 195 187 182 170
146 150 153 160 158 163 164 164 164 163 160 159 156 154 160 163 168 171 181 189 185 176 177 186 184 189 181 187 183 175 164 158 158 158 165 169 176 182 188 195 196 192 194
144 144 144 155 159 163 161 161 160 164 153 146 148 151 154 161 162 152 170 188 188 182 173 177 185 190 189 176 181 178 171 167 166 158 167 175 178 190 190 191 196 194 189
135 135 137 136 143 154 159 161 159 154 146 147 147 154 162 166 167 163 157 160 174 176 167 167 163 165 179 171 162 166 171 171 175 168 170 182 189 181 181 185 177 174 176
131 130 129 138 144 142 143 153 164 169 171 164 169 172 169 175 184 176 168 163 165 168 161 152 156 165 167 166 167 175 173 171 170 173 178 175 174 169 176 180 182 178 179
131 135 139 137 143 146 144 135 160 172 182 188 188 183 182 180 171 170 169 170 171 170 165 168 179 186 187 178 172 169 178 179 177 175 179 181 175 178 174 177 182 189 201
137 139 139 140 150 152 148 145 122 134 177 179 184 184 177 169 169 171 174 176 173 164 173 182 186 192 190 188 177 172 174 187 181 179 179 188 186 186 186 183 184 188 194
145 151 151 154 157 152 146 141 138 136 130 134 161 172 179 168 163 164 165 167 163 181 180 181 185 184 187 185 181 175 182 183 184 185 187 192 194 191 188 189 200 204 205
151 155 152 154 154 150 141 137 138 137 132 135 137 145 152 157 159 163 169 172 176 177 180 182 185 182 183 183 173 182 184 186 186 193 198 196 197 196 199 201 206 217 220
155 157 154 149 147 139 143 139 141 143 138 143 145 155 156 155 158 168 174 179 186 184 174 175 183 182 180 180 170 172 182 184 189 196 202 202 206 206 211 217 223 226 223
157 161 160 155 155 154 153 153 154 155 155 160 159 170 170 167 169 176 174 181 192 197 200 190 182 184 182 187 190 194 189 196 200 205 206 213 210 209 217 224 225 227 232
156 160 165 170 167 161 157 160 160 161 164 166 167 170 172 180 177 175 182 197 206 212 204 186 170 182 194 197 203 205 209 213 215 214 221 223 222 222 226 239 238 241 246
164 165 169 181 171 165 158 160 164 155 150 162 164 162 159 161 156 165 189 207 175 165 166 174 177 174 189 194 206 210 215 229 230 228 231 235 233 230 229 245 249 251 253
118 116 109 119 150 154 163 163 146 143 138 145 148 139 130 133 133 128 126 126 126 126 127 124 128 131 147 159 180 202 216 225 221 223 230 239 242 242 245 255 263 268 270
99 94 87 86 90 109 122 125 124 124 126 124 122 120 116 114 116 116 117 116 115 112 105 105 103 100 98 94 95 107 205 219 214 180 165 226 232 236 231 220 93 32 329
71 75 78 82 79 85 92 98 107 109 104 108 113 111 112 112 109 105 110 110 108 105 100 95 91 89 88 85 86 94 104 119 139 181 174 162 146 145 160 137 80 316 12